This demonstration page uses our WeatherBlox Daily Observations layout. Learn more.

Left ArrowRight Arrow

Hourly Observations for November 14, 2015

Temp ( °F °C ) Dew Point ( °F °C ) Humidity (%) Winds ( mph kmh ) Pressure ( in mb ) Visibility ( mi km ) Precip ( " mm )
12:53 am 00:53 Clear 53 11.7 36 2.2 52 52 ESE 12 19 30.11 1020 10 16 0.00 0.00
1:53 am 01:53 Clear 52 11.1 35 1.7 53 53 ESE 6 9 30.11 1020 10 16 0.00 0.00
2:53 am 02:53 Clear 52 11.1 36 2.2 55 55 E 9 15 30.10 1019 10 16 0.00 0.00
3:53 am 03:53 Mostly Clear 51 10.6 37 2.8 59 59 ESE 8 13 30.10 1019 10 16 0.00 0.00
4:53 am 04:53 Clear 50 10 37 2.8 61 61 E 6 9 30.10 1019 10 16 0.00 0.00
5:53 am 05:53 Mostly Cloudy 50 10 37 2.8 61 61 E 7 11 30.10 1019 10 16 0.00 0.00
6:53 am 06:53 Cloudy 51 10.6 38 3.3 61 61 ESE 9 15 30.11 1020 10 16 0.00 0.00
7:53 am 07:53 Cloudy 52 11.1 39 3.9 61 61 ESE 9 15 30.13 1020 10 16 0.00 0.00
8:53 am 08:53 Cloudy 53 11.7 40 4.4 61 61 SE 9 15 30.16 1021 10 16 0.00 0.00
9:53 am 09:53 Partly Cloudy 54 12.2 42 5.6 64 64 SSE 10 17 30.17 1022 10 16 0.00 0.00
10:53 am 10:53 Mostly Sunny 55 12.8 43 6.1 64 64 SSE 8 13 30.18 1022 10 16 0.00 0.00
11:53 am 11:53 Partly Cloudy 58 14.4 44 6.7 60 60 ESE 8 13 30.14 1021 10 16 0.00 0.00
12:53 pm 12:53 Sunny 60 15.6 44 6.7 56 56 SE 8 13 30.11 1020 10 16 0.00 0.00
1:53 pm 13:53 Mostly Sunny 62 16.7 45 7.2 54 54 ESE 13 20 30.08 1019 10 16 0.00 0.00
2:53 pm 14:53 Mostly Cloudy 64 17.8 46 7.8 52 52 SE 10 17 30.06 1018 10 16 0.00 0.00
3:53 pm 15:53 Partly Cloudy 64 17.8 46 7.8 52 52 SSE 8 13 30.04 1017 10 16 0.00 0.00
4:53 pm 16:53 Sunny 65 18.3 47 8.3 52 52 SE 13 20 30.03 1017 10 16 0.00 0.00
5:53 pm 17:53 Sunny 61 16.1 47 8.3 60 60 ESE 8 13 30.03 1017 10 16 0.00 0.00
6:53 pm 18:53 Clear 58 14.4 48 8.9 70 70 ESE 9 15 30.04 1017 10 16 0.00 0.00
7:53 pm 19:53 Clear 56 13.3 49 9.4 77 77 ESE 16 26 30.06 1018 10 16 0.00 0.00
8:53 pm 20:53 Clear 54 12.2 48 8.9 80 80 SE 16 26 30.06 1018 10 16 0.00 0.00
9:53 pm 21:53 Clear 54 12.2 48 8.9 80 80 SE 16 26 30.07 1018 10 16 0.00 0.00
10:53 pm 22:53 Clear 54 12.2 49 9.4 83 83 SE 13 20 30.08 1019 10 16 0.00 0.00
11:53 pm 23:53 Clear 53 11.7 49 9.4 86 86 SE 14 22 30.07 1018 10 16 0.00 0.00

Powered by AerisWeather